Change the Weather History Date:

Tuesday, February 12, 2013

  Actual Average Record
Temperature  
Mean Temperature 80 °F -  
Max Temperature 89 °F 81 °F 93 °F (2003)
Min Temperature 70 °F 66 °F 62 °F (1998)
Cooling Degree Days 14    
Growing Degree Days 30 (Base 50)    
Moisture  
Dew Point 61 °F    
Average Humidity 55    
Maximum Humidity 73    
Minimum Humidity 25    
Precipitation  
Precipitation 0.03 in - - ()
Sea Level Pressure  
Sea Level Pressure 29.98 in    
Wind  
Wind Speed 6 mph ()    
Max Wind Speed 14 mph    
Max Gust Speed 25 mph    
Visibility 7.7 miles    
Events Rain , Thunderstorm    
Averages and records for this station are not official NWS values.
T = Trace of Precipitation, MM = Missing Value Source: Averaged Metar Reports

Daily Weather History Graph

Daily Weather History Graph

Search for Another Location

Airport or City:

Trip Planner

Search our weather history database for the weather conditions in past years. The results will help you decide how hot, cold, wet, or windy it might be!

Date:

Astronomy

Feb. 12, 2013 Rise Set
Actual Time 6:52 AM BRST 7:48 PM BRST
Civil Twilight 6:29 AM BRST 8:12 PM BRST
Nautical Twilight 6:01 AM BRST 8:39 PM BRST
Astronomical Twilight 5:33 AM BRST 9:08 PM BRST
Moon 9:00 AM BRST (2/12) 9:15 PM BRST (2/12)
Length of Visible Light 13h 42m
Length of Day
12h 55m
Waxing Crescent, 6% of the Moon is Illuminated
Feb 12
Waxing Crescent
Feb 17
First Quarter
Feb 25
Full
Mar 4
Last Quarter
Mar 11
New

Hourly Weather History & Observations

Time (BRST) Temp. Heat Index Dew Point Humidity Pressure Visibility Wind Dir Wind Speed Gust Speed Precip Events Conditions
12:00 AM 75.2 °F - 62.6 °F 65% 30.04 in - NNE 3.5 mph - N/A   Clear
1:00 AM 75.2 °F - 62.6 °F 65% 30.01 in - ENE 1.2 mph - N/A   Clear
2:00 AM 73.4 °F - 62.6 °F 69% 30.01 in - Calm Calm - N/A   Clear
3:00 AM 73.4 °F - 62.6 °F 69% 29.98 in - NE 2.3 mph - N/A   Clear
4:00 AM 72 °F - 63 °F 65%  in 12 mi NE 3.5 mph - -   Partly Cloudy
4:00 AM 71.6 °F - 62.6 °F 73% 29.98 in - NE 3.5 mph - N/A   Clear
5:00 AM 71.6 °F - 62.6 °F 73% 29.95 in - NE 3.5 mph - N/A   Clear
6:00 AM 71.6 °F - 62.6 °F 73% 29.95 in - NNE 4.6 mph - N/A   Clear
7:00 AM 71.6 °F - 62.6 °F 73% 29.95 in - NE 3.5 mph - N/A   Clear
8:00 AM 73.4 °F - 64.4 °F 73% 29.98 in - NNW 3.5 mph - N/A   Clear
9:00 AM 77.0 °F - 62.6 °F 61% 29.98 in - North 5.8 mph - N/A   Clear
10:00 AM 80 °F - 60 °F 41%  in 12 mi NNW 10.4 mph - -   Clear
10:00 AM 80.6 °F 81.5 °F 60.8 °F 51% 30.01 in - NNW 10.4 mph - N/A   Clear
11:00 AM 82.4 °F 82.9 °F 60.8 °F 48% 30.01 in - NW 11.5 mph - N/A   Clear
12:00 PM 84.2 °F 84.4 °F 60.8 °F 45% 30.01 in - NNW 12.7 mph 24.2 mph N/A   Clear
1:00 PM 86.0 °F 85.4 °F 59.0 °F 40% 30.01 in 6.2 mi NW 12.7 mph 25.3 mph N/A   Scattered Clouds
2:00 PM 87.8 °F 87.1 °F 59.0 °F 38% 29.98 in 6.2 mi WNW 11.5 mph 24.2 mph N/A   Partly Cloudy
3:00 PM 89.6 °F 88.9 °F 59.0 °F 36% 29.98 in 6.2 mi NW 13.8 mph - N/A   Partly Cloudy
4:00 PM 89 °F - 58 °F 25%  in 12 mi NW 12.7 mph - -   Mostly Cloudy
4:00 PM 89.6 °F 88.1 °F 57.2 °F 33% 29.95 in 6.2 mi NW 12.7 mph - N/A   Partly Cloudy
5:00 PM 89.6 °F 88.9 °F 59.0 °F 36% 29.92 in 6.2 mi West 11.5 mph - N/A   Partly Cloudy
6:00 PM 86.0 °F 85.4 °F 59.0 °F 40% 29.92 in 6.2 mi WNW 10.4 mph - N/A   Partly Cloudy
7:00 PM 84.2 °F 83.8 °F 59.0 °F 42% 29.95 in 6.2 mi West 6.9 mph - N/A Thunderstorm Thunderstorm
8:00 PM 77.0 °F - 62.6 °F 61% 29.95 in 6.2 mi East 8.1 mph - N/A Rain , Thunderstorm Light Thunderstorms and Rain
9:00 PM 75.2 °F - 62.6 °F 65% - 6.2 mi East 12.7 mph - N/A Thunderstorm Mostly Cloudy
10:00 PM 76 °F - 62 °F 53%  in 12 mi East 9.2 mph - - Rain Light Rain
10:00 PM 75.2 °F - 62.6 °F 65% - 6.2 mi East 9.2 mph - N/A Thunderstorm Scattered Clouds
11:00 PM 75.2 °F - 60.8 °F 61% 30.04 in 6.2 mi East 5.8 mph - N/A   Mostly Cloudy